Погода в Можайске

Россия / Московская область     55°30′24″N   36°01′02″E
темп.,
°C
ветер,
м/с
пор.,
м/с
влажн.,
%
обл.,
%
осадки,
мм/ч
давл.,
гПа
погр.,
м
4 декабря, сб
сб400:00−1зюз51286100 0.0 1000747
03:00−4зюз6138886 0.0 1001671
06:00−3зюз61388100 0.1 10021172
09:00−4зюз61286100 0.2 1004945
12:00−4з6128395 0.1 1007833
15:00−4з5128595 0.1 1008704
18:00−4з5983100 0.0 1010713
21:00−3зюз4784100 0.1 1012708
5 декабря, вс
вс500:00−5ю2397100 0.1 101284
03:00−3ю2595100 0.1 1013178
06:00−3ююз3794100 0.0 1012223
09:00−3ю3792100 0.0 1013286
12:00−2ююз3890100 0.2 1014391
15:00−2ю369323 0.2 1014200
18:00−5ю269883 0.0 1015108
21:00−6ю259883 0.0 1016104
6 декабря, пн
пн600:00−7ююв1298100 0.0 101738
03:00−7ююв2498100 0.0 101862
06:00−7вюв119877 0.0 101829
09:00−7вюв2497100 0.0 101967
12:00−3юв2687100 0.0 1019212
15:00−2вюв2687100 0.0 1019221
18:00−3вюв398756 0.0 1018321
21:00−4юв41086100 0.0 1018360
7 декабря, вт
вт700:00−4вюв4988100 0.0 1017346
03:00−3вюв41095100 0.1 1015384
06:00−2вюв51296100 0.9 1013476
09:00−2вюв51397100 5.3 1010588
12:00−1юв41098100 3.2 1009484
15:000ююв3899100 4.4 1008345
18:000ю2599100 0.1 1008217
21:000з2599100 0.1 1009286
8 декабря, ср
ср800:00−3сз3796100 0.0 1011278
03:00−6ссз3896100 0.0 1014252
06:00−8ссз3895100 0.0 1016247
09:00−10ссз389488 0.0 1018240
12:00−10ссз4792100 0.0 1019253
15:00−10ссз499298 0.0 1020295
18:00−12с389597 0.0 1021228
21:00−12с3995100 0.0 1022223